When you browse on this site, cookies collect data to enhance your experience and personalize the content and advertising you see.
Visit our Privacy Policy to learn more. By continuing to use the site, you agree to this use of cookies and data.
  • In Spain
  • List of Countries
  • For 7 days
  • Water Temperature
  • Weather Map
  • Weather Widgets
  • user-avatar
    Login

    Hourly Weather Rancagua

    Today, 24 January, Friday

    Time Temperature Precipitation Wind Pressure Humidity
    00:00 +18°C° 0 mm 0 mps 717 mmHg 78%
    01:00 +17°C° 0 mm 0 mps 717 mmHg 81%
    02:00 +17°C° 0 mm 0 mps 717 mmHg 82%
    03:00 +17°C° 0 mm 0 mps 717 mmHg 82%
    04:00 +16°C° 0 mm 0 mps 717 mmHg 83%
    05:00 +19°C° 0 mm 0 mps 717 mmHg 74%
    06:00 +23°C° 0 mm 1 mps 718 mmHg 65%
    07:00 +25°C° 0 mm 1 mps 719 mmHg 58%
    08:00 +27°C° 0 mm 1 mps 719 mmHg 52%
    09:00 +29°C° 0 mm 2 mps 719 mmHg 45%
    10:00 +31°C° 0 mm 2 mps 719 mmHg 39%
    11:00 +34°C° 0 mm 3 mps 719 mmHg 34%
    12:00 +35°C° 0 mm 3 mps 718 mmHg 29%
    13:00 +37°C° 0 mm 4 mps 718 mmHg 24%
    14:00 +37°C° 0 mm 4 mps 718 mmHg 21%
    15:00 +37°C° 0 mm 4 mps 718 mmHg 17%
    16:00 +37°C° 0 mm 4 mps 718 mmHg 14%
    17:00 +34°C° 0 mm 3 mps 718 mmHg 22%
    18:00 +29°C° 0 mm 2 mps 718 mmHg 29%
    19:00 +25°C° 0 mm 1 mps 718 mmHg 37%
    20:00 +23°C° 0 mm 1 mps 718 mmHg 41%
    21:00 +22°C° 0 mm 1 mps 718 mmHg 44%
    22:00 +18°C° 0 mm 0 mps 718 mmHg 48%
    23:00 +18°C° 0 mm 0 mps 718 mmHg 49%

    Tomorrow, 25 January, Saturday

    Time Temperature Precipitation Wind Pressure Humidity
    00:00 +18°C° 0 mm 0 mps 717 mmHg 50%
    01:00 +17°C° 0 mm 0 mps 717 mmHg 51%
    02:00 +17°C° 0 mm 0 mps 717 mmHg 52%
    03:00 +17°C° 0 mm 0 mps 717 mmHg 52%
    04:00 +16°C° 0 mm 0 mps 717 mmHg 52%
    05:00 +19°C° 0 mm 0 mps 717 mmHg 45%
    06:00 +22°C° 0 mm 0 mps 718 mmHg 38%
    07:00 +26°C° 0 mm 1 mps 719 mmHg 31%
    08:00 +29°C° 0 mm 1 mps 719 mmHg 26%
    09:00 +31°C° 0 mm 2 mps 719 mmHg 22%
    10:00 +35°C° 0 mm 2 mps 719 mmHg 17%
    11:00 +36°C° 0 mm 3 mps 719 mmHg 15%
    12:00 +37°C° 0 mm 3 mps 719 mmHg 12%
    13:00 +38°C° 0 mm 4 mps 719 mmHg 10%
    14:00 +38°C° 0 mm 4 mps 719 mmHg 10%
    15:00 +38°C° 0 mm 4 mps 719 mmHg 10%
    16:00 +37°C° 0 mm 4 mps 718 mmHg 10%
    17:00 +34°C° 0 mm 3 mps 718 mmHg 16%
    18:00 +29°C° 0 mm 2 mps 718 mmHg 21%
    19:00 +25°C° 0 mm 1 mps 718 mmHg 27%
    20:00 +24°C° 0 mm 1 mps 718 mmHg 30%
    21:00 +22°C° 0 mm 1 mps 718 mmHg 33%
    22:00 +19°C° 0 mm 0 mps 718 mmHg 36%
    23:00 +18°C° 0 mm 0 mps 718 mmHg 36%

    Day after tomorrow, 26 January, Sunday

    Time Temperature Precipitation Wind Pressure Humidity
    00:00 +18°C° 0 mm 0 mps 718 mmHg 37%
    01:00 +18°C° 0 mm 0 mps 717 mmHg 37%
    02:00 +17°C° 0 mm 0 mps 717 mmHg 38%
    03:00 +17°C° 0 mm 0 mps 718 mmHg 38%
    04:00 +17°C° 0 mm 0 mps 718 mmHg 39%
    05:00 +19°C° 0 mm 0 mps 718 mmHg 34%
    06:00 +22°C° 0 mm 0 mps 719 mmHg 29%
    07:00 +24°C° 0 mm 0 mps 720 mmHg 25%
    08:00 +29°C° 0 mm 1 mps 720 mmHg 22%
    09:00 +31°C° 0 mm 2 mps 720 mmHg 18%
    10:00 +35°C° 0 mm 2 mps 720 mmHg 15%
    11:00 +36°C° 0 mm 3 mps 720 mmHg 14%
    12:00 +37°C° 0 mm 3 mps 720 mmHg 13%
    13:00 +38°C° 0 mm 4 mps 720 mmHg 12%
    14:00 +38°C° 0 mm 4 mps 719 mmHg 13%
    15:00 +38°C° 0 mm 4 mps 719 mmHg 13%
    16:00 +38°C° 0 mm 4 mps 719 mmHg 14%
    17:00 +34°C° 0 mm 3 mps 719 mmHg 22%
    18:00 +30°C° 0 mm 2 mps 719 mmHg 30%
    19:00 +26°C° 0 mm 1 mps 718 mmHg 38%
    20:00 +25°C° 0 mm 1 mps 719 mmHg 42%
    21:00 +24°C° 0 mm 1 mps 719 mmHg 46%
    22:00 +20°C° 0 mm 0 mps 719 mmHg 51%
    23:00 +20°C° 0 mm 0 mps 718 mmHg 52%

    27 January, Monday

    Time Temperature Precipitation Wind Pressure Humidity
    00:00 +19°C° 0 mm 0 mps 718 mmHg 53%
    01:00 +19°C° 0 mm 0 mps 717 mmHg 54%
    02:00 +19°C° 0 mm 0 mps 717 mmHg 55%
    03:00 +18°C° 0 mm 0 mps 717 mmHg 55%
    04:00 +18°C° 0 mm 0 mps 717 mmHg 56%
    05:00 +20°C° 0 mm 0 mps 717 mmHg 50%
    06:00 +25°C° 0 mm 1 mps 718 mmHg 43%
    07:00 +27°C° 0 mm 1 mps 718 mmHg 36%
    08:00 +29°C° 0 mm 2 mps 718 mmHg 32%
    09:00 +32°C° 0 mm 2 mps 718 mmHg 29%
    10:00 +35°C° 0 mm 3 mps 718 mmHg 25%
    11:00 +36°C° 0 mm 3 mps 718 mmHg 22%
    12:00 +37°C° 0 mm 3 mps 718 mmHg 19%
    13:00 +38°C° 0 mm 4 mps 718 mmHg 17%
    14:00 +38°C° 0 mm 4 mps 718 mmHg 18%
    15:00 +39°C° 0 mm 5 mps 718 mmHg 18%
    16:00 +37°C° 0 mm 5 mps 718 mmHg 19%
    17:00 +34°C° 0 mm 4 mps 717 mmHg 26%
    18:00 +29°C° 0 mm 3 mps 717 mmHg 32%
    19:00 +26°C° 0 mm 1 mps 717 mmHg 38%
    20:00 +24°C° 0 mm 1 mps 717 mmHg 42%
    21:00 +23°C° 0 mm 1 mps 717 mmHg 46%
    22:00 +19°C° 0 mm 0 mps 717 mmHg 49%
    23:00 +19°C° 0 mm 0 mps 716 mmHg 51%

    28 January, Tuesday

    Time Temperature Precipitation Wind Pressure Humidity
    00:00 +19°C° 0 mm 0 mps 716 mmHg 52%
    01:00 +18°C° 0 mm 0 mps 716 mmHg 54%
    02:00 +18°C° 0 mm 0 mps 716 mmHg 56%
    03:00 +17°C° 0 mm 0 mps 715 mmHg 58%
    04:00 +17°C° 0 mm 0 mps 715 mmHg 60%
    05:00 +19°C° 0 mm 0 mps 716 mmHg 52%
    06:00 +21°C° 0 mm 0 mps 716 mmHg 45%
    07:00 +26°C° 0 mm 1 mps 716 mmHg 37%
    08:00 +28°C° 0 mm 1 mps 717 mmHg 33%
    09:00 +30°C° 0 mm 2 mps 717 mmHg 29%
    10:00 +32°C° 0 mm 2 mps 717 mmHg 24%
    11:00 +35°C° 0 mm 3 mps 717 mmHg 23%
    12:00 +36°C° 0 mm 3 mps 717 mmHg 21%
    13:00 +37°C° 0 mm 4 mps 717 mmHg 19%
    14:00 +36°C° 0 mm 4 mps 717 mmHg 19%
    15:00 +35°C° 0 mm 5 mps 717 mmHg 20%
    16:00 +34°C° 0 mm 5 mps 717 mmHg 21%
    17:00 +30°C° 0 mm 4 mps 717 mmHg 27%
    18:00 +26°C° 0 mm 3 mps 717 mmHg 33%
    19:00 +23°C° 0 mm 1 mps 717 mmHg 40%
    20:00 +21°C° 0 mm 1 mps 716 mmHg 44%
    21:00 +20°C° 0 mm 1 mps 716 mmHg 49%
    22:00 +19°C° 0 mm 1 mps 716 mmHg 53%
    23:00 +16°C° 0 mm 0 mps 716 mmHg 55%

    29 January, Wednesday

    Time Temperature Precipitation Wind Pressure Humidity
    00:00 +16°C° 0 mm 0 mps 716 mmHg 57%
    01:00 +15°C° 0 mm 0 mps 715 mmHg 59%
    02:00 +15°C° 0 mm 0 mps 715 mmHg 61%
    03:00 +15°C° 0 mm 0 mps 715 mmHg 62%
    04:00 +16°C° 0 mm 1 mps 715 mmHg 64%
    05:00 +19°C° 0 mm 1 mps 716 mmHg 57%
    06:00 +21°C° 0 mm 1 mps 716 mmHg 50%
    07:00 +23°C° 0 mm 1 mps 716 mmHg 43%
    08:00 +25°C° 0 mm 1 mps 717 mmHg 37%
    09:00 +27°C° 0 mm 2 mps 717 mmHg 31%
    10:00 +29°C° 0 mm 3 mps 717 mmHg 26%
    11:00 +31°C° 0 mm 3 mps 717 mmHg 23%
    12:00 +33°C° 0 mm 3 mps 717 mmHg 21%
    13:00 +34°C° 0 mm 3 mps 717 mmHg 18%
    14:00 +34°C° 0 mm 4 mps 717 mmHg 20%
    15:00 +33°C° 0 mm 4 mps 717 mmHg 21%
    16:00 +33°C° 0 mm 5 mps 717 mmHg 23%
    17:00 +29°C° 0 mm 4 mps 717 mmHg 32%
    18:00 +26°C° 0 mm 3 mps 717 mmHg 41%
    19:00 +21°C° 0 mm 2 mps 717 mmHg 50%
    20:00 +21°C° 0 mm 1 mps 717 mmHg 55%
    21:00 +19°C° 0 mm 1 mps 717 mmHg 60%
    22:00 +16°C° 0 mm 0 mps 717 mmHg 66%
    23:00 +15°C° 0 mm 0 mps 717 mmHg 66%
    Show more